Location: Cosy Dell
(34.2789°N, 117.4537°W)
Time: 02:01:53
(UTC+00:00)

Cosmos 2369 - Visible Passes

Search period start: 21 October 2020 00:00
Search period end: 31 October 2020 00:00
Orbit: 839 x 856 km, 71.0° (Epoch: 20 October)

Date Brightness Start Highest point End Pass type
(mag) Time Alt. Az. Time Alt. Az. Time Alt. Az.
22 Oct 5.7 02:58:36 10° SSE 02:59:27 14° SSE 02:59:27 14° SSE visible
23 Oct 4.9 02:45:23 10° SSE 02:48:13 25° SE 02:48:13 25° SE visible
23 Oct 6.4 04:29:47 10° WSW 04:30:16 12° WSW 04:30:16 12° WSW visible
23 Oct 4.0 13:27:10 10° NNW 13:32:50 75° ENE 13:38:27 10° SSE visible
24 Oct 4.3 02:32:09 10° SSE 02:37:00 34° ESE 02:37:00 34° ESE visible
24 Oct 5.8 04:16:29 10° WSW 04:19:03 22° W 04:19:03 22° W visible
24 Oct 4.0 13:13:54 10° NNW 13:19:34 73° ENE 13:25:11 10° SSE visible
25 Oct 4.3 02:18:56 10° SSE 02:23:58 33° ESE 02:25:46 27° ENE visible
25 Oct 5.4 04:03:11 10° WSW 04:07:50 29° WNW 04:07:50 29° WNW visible
25 Oct 4.0 13:00:39 10° NNW 13:06:18 72° ENE 13:11:55 10° SSE visible
26 Oct 4.4 02:05:42 10° SSE 02:10:43 33° ESE 02:14:26 16° NE visible
26 Oct 5.4 03:49:52 10° WSW 03:54:49 30° WNW 03:56:29 26° NNW visible
26 Oct 4.0 12:47:23 10° NNW 12:53:03 70° ENE 12:58:39 10° SSE visible
27 Oct 4.4 01:52:28 10° SSE 01:57:28 32° ESE 02:02:28 10° NE visible
27 Oct 5.4 03:36:34 10° WSW 03:41:32 30° WNW 03:44:59 17° NNW visible
27 Oct 4.0 12:34:08 10° NNW 12:39:46 69° ENE 12:45:22 10° SSE visible
28 Oct 4.5 01:39:15 10° SSE 01:44:12 31° ESE 01:49:10 10° NE visible
28 Oct 5.4 03:23:16 10° WSW 03:28:16 31° WNW 03:33:15 10° N visible
28 Oct 4.0 12:20:52 10° NNW 12:26:31 67° ENE 12:32:05 10° SSE visible
29 Oct 4.5 01:26:02 10° SSE 01:30:57 30° ESE 01:35:52 10° NE visible
29 Oct 5.4 03:09:58 10° SW 03:14:59 31° WNW 03:20:03 10° N visible
29 Oct 4.0 12:08:19 14° NNW 12:13:14 66° ENE 12:18:49 10° SSE visible
30 Oct 4.6 01:12:49 10° SSE 01:17:42 30° ESE 01:22:35 10° NE visible
30 Oct 5.3 02:56:39 10° SW 03:01:43 32° WNW 03:06:48 10° N visible
30 Oct 4.0 11:57:03 29° N 11:59:58 64° ENE 12:05:32 10° SSE visible
30 Oct 5.3 13:40:47 10° WNW 13:43:28 14° W 13:46:08 10° SW visible
